Вернуться в каталог

PEGASUS DEB

АктивенPO
NORAD 39917·DEBRIS·🇺🇸 United States

Запущен May 19, 1994 с Vandenberg Space Force Base

Loading…

Ближайшие Пролёты (ближайшие 24 часа)

TLE

СвежийSource: Space-Track

Эпоха: Sep 14, 2026, 04:19 UTC

1 39917U 94029AFQ 26257.18006172  .00003653  00000-0  90783-3 0  9997
2 39917  82.1262 228.7982 0440826 152.6236 209.8938 14.06089204121590

Отслеживайте PEGASUS DEB в реальном времени с AllMySat

Download on the App Store